sat.trackr.live / text

‹ back to catalog

KUIPER-00595

NORAD 69280 · 2026-118P

PAYLOAD ACTIVE UNKNOWN

§ Identity

Operator
Country
US
Launch date
2026-05-29
Launch site
AFETR
Launch vehicle
Mass (kg)
RCS (m²)

External: N2YO · Heavens-Above · Gunter

§ Orbital elements

Epoch: 2026-09-19T17:11:25.813536Z

Period
97.30 min
Inclination
51.9016°
Eccentricity
0.0001165
Mean motion
14.79920267 rev/d
Perigee alt
628.8 km
Apogee alt
630.4 km
Semi-major
7,007.7 km
B*
2.5517e-4
RAAN
325.1240°
Arg perigee
182.1933°
Mean anomaly
177.9024°
Rev number
1,843

§ Raw data

KUIPER-005951 69280U 26118P   26262.71627099  .00001724  00000+0  25517-3 0  99982 69280  51.9016 325.1240 0001165 182.1933 177.9024 14.79920267 18439

JSON: /api/v1/satellites/69280 · /tle

For live sub-satellite position, see the globe view (requires WebGL).

§ Visibility from observer

Set your observer location to see the next 7 days of passes ≥ 10°. The values pass through the URL so the page stays shareable.

No JS? Fill the form by hand. The geolocation button needs JavaScript.